RH
19 17 16 15 15 14 13 11 9 7 7 7 8 9 9 11 15 21 26 34 39 48 65 83 97 97 92 85 62 53 52 44
17 17 17 19 19 18 18 16 13 11 9 8 7 8 9 11 11 11 12 19 26 36 40 47 66 75 88 93 80 71 56 60
17 17 17 19 20 21 20 19 17 16 13 11 11 10 10 10 10 11 11 11 13 17 28 36 43 53 64 66 71 64 72 68
20 20 19 22 23 24 24 24 20 21 17 15 13 12 11 11 10 10 10 11 12 13 15 22 32 43 52 62 67 70 71 74
22 20 19 22 23 23 24 24 22 21 21 18 16 14 13 13 12 12 12 12 11 13 14 16 19 27 37 52 64 76 76 73
20 17 18 21 22 21 21 23 21 21 21 19 18 16 15 14 12 12 12 12 13 13 13 15 17 20 28 34 44 58 67 78
19 17 18 21 23 23 23 23 21 20 19 18 17 16 15 15 14 13 13 12 12 13 14 14 15 19 24 30 34 39 48 58
20 19 19 22 21 22 23 22 21 19 17 15 14 14 14 14 14 14 13 12 13 14 16 16 15 16 21 26 29 36 42 47
22 21 21 21 21 22 22 22 21 19 18 16 14 12 11 12 12 12 13 13 13 14 16 18 17 16 17 20 25 27 34 43
23 22 22 22 22 24 25 25 22 21 19 18 16 13 12 11 10 10 10 11 10 11 13 15 17 17 17 19 20 25 29 33
23 22 23 23 22 23 25 25 25 22 20 18 16 14 12 10 10 9 9 9 9 10 10 11 13 14 18 20 20 20 23 30
24 24 23 23 23 24 25 26 25 25 24 22 20 19 18 12 13 13 11 10 10 10 9 9 9 11 14 17 21 20 20 23
25 24 24 23 23 25 26 27 27 26 27 27 25 22 21 15 13 15 14 13 12 12 11 10 10 10 12 14 16 20 21 20
25 25 25 24 25 27 28 29 29 29 29 29 27 27 24 19 15 16 16 15 15 14 14 13 13 12 12 13 15 17 20 21
27 27 26 27 29 29 29 30 30 32 33 33 32 32 30 27 19 19 19 16 16 17 18 17 17 16 15 14 14 16 17 19
29 28 30 31 31 32 34 34 34 36 36 36 36 36 36 36 33 28 24 21 20 21 22 22 23 22 21 18 16 16 16 16
31 32 33 34 35 36 36 37 38 39 39 40 40 38 38 38 42 40 36 29 24 25 27 25 26 25 25 24 17 15 14 15
34 35 35 37 38 40 41 41 42 43 44 44 43 44 43 44 44 53 46 40 31 28 30 28 28 27 25 23 18 13 12 11
37 37 38 40 41 42 43 43 42 42 41 42 48 50 51 50 50 49 53 47 43 33 33 32 30 28 27 24 18 14 12 11